| time (UTC) | temp C | wind direction | speed KPH | gust KPH | rain 1hr cm | rain 24hr cm | rain mn cm | humidity % | barometer mb |
| 20260502203529 | 13 | 176 | 3.2 | 12.9 | 0.00 | 0.15 | 0.15 | 59 | 1009.9 |
| 20260502203031 | 13 | 221 | 4.8 | 20.9 | 0.00 | 0.15 | 0.15 | 58 | 1009.9 |
| 20260502202530 | 13 | 201 | 4.8 | 17.7 | 0.00 | 0.15 | 0.15 | 58 | 1009.9 |
| 20260502202030 | 13 | 215 | 6.4 | 14.5 | 0.00 | 0.15 | 0.15 | 57 | 1010.0 |
| 20260502201550 | 13 | 170 | 4.8 | 14.5 | 0.00 | 0.15 | 0.15 | 57 | 1010.0 |
| 20260502201030 | 13 | 233 | 4.8 | 22.5 | 0.00 | 0.15 | 0.15 | 56 | 1010.0 |
| 20260502200530 | 14 | 238 | 4.8 | 22.5 | 0.00 | 0.15 | 0.15 | 57 | 1010.0 |
| 20260502200030 | 13 | 228 | 4.8 | 22.5 | 0.00 | 0.15 | 0.15 | 58 | 1010.0 |
| 20260502195550 | 13 | 204 | 8.0 | 24.1 | 0.00 | 0.15 | 0.15 | 59 | 1010.0 |
| 20260502195029 | 13 | 196 | 6.4 | 24.1 | 0.00 | 0.15 | 0.15 | 64 | 1010.1 |
| 20260502194529 | 12 | 198 | 4.8 | 22.5 | 0.00 | 0.15 | 0.15 | 65 | 1010.3 |
| 20260502194029 | 12 | 192 | 4.8 | 24.1 | 0.00 | 0.15 | 0.15 | 66 | 1010.5 |
| 20260502193529 | 12 | 207 | 6.4 | 24.1 | 0.00 | 0.15 | 0.15 | 65 | 1010.4 |
| 20260502193029 | 12 | 227 | 4.8 | 14.5 | 0.00 | 0.15 | 0.15 | 65 | 1010.5 |
| 20260502192534 | 12 | 191 | 3.2 | 12.9 | 0.00 | 0.15 | 0.15 | 65 | 1010.5 |
| 20260502192051 | 13 | 210 | 4.8 | 17.7 | 0.00 | 0.15 | 0.15 | 65 | 1010.6 |
| 20260502191535 | 12 | 202 | 1.6 | 6.4 | 0.00 | 0.15 | 0.15 | 68 | 1010.7 |
| 20260502191030 | 12 | 156 | 4.8 | 16.1 | 0.00 | 0.15 | 0.15 | 66 | 1010.7 |
| 20260502190531 | 12 | 186 | 3.2 | 16.1 | 0.00 | 0.15 | 0.15 | 66 | 1010.6 |
| 20260502190050 | 12 | 193 | 1.6 | 11.3 | 0.00 | 0.15 | 0.15 | 65 | 1010.6 |
| 20260502185531 | 12 | 191 | 4.8 | 17.7 | 0.00 | 0.15 | 0.15 | 65 | 1010.6 |
| 20260502185031 | 12 | 189 | 4.8 | 22.5 | 0.00 | 0.15 | 0.15 | 65 | 1010.6 |
| 20260502184530 | 12 | 181 | 6.4 | 24.1 | 0.00 | 0.15 | 0.15 | 62 | 1010.8 |
| 20260502184030 | 12 | 214 | 4.8 | 16.1 | 0.00 | 0.15 | 0.15 | 61 | 1010.7 |
| 20260502183551 | 12 | 180 | 4.8 | 22.5 | 0.00 | 0.15 | 0.15 | 60 | 1010.7 |
| 20260502183030 | 12 | 215 | 6.4 | 27.4 | 0.00 | 0.15 | 0.15 | 59 | 1010.7 |
| 20260502182530 | 12 | 204 | 4.8 | 24.1 | 0.00 | 0.15 | 0.15 | 60 | 1010.7 |
| 20260502182030 | 13 | 208 | 6.4 | 22.5 | 0.00 | 0.15 | 0.15 | 58 | 1010.7 |
| 20260502181529 | 13 | 201 | 4.8 | 17.7 | 0.00 | 0.15 | 0.15 | 57 | 1010.9 |
| 20260502181030 | 12 | 192 | 6.4 | 22.5 | 0.00 | 0.15 | 0.15 | 55 | 1010.9 |
| 20260502180529 | 12 | 234 | 4.8 | 22.5 | 0.00 | 0.15 | 0.15 | 54 | 1010.9 |
| 20260502164049 | 12 | 161 | 0.0 | 3.2 | 0.00 | 0.15 | 0.15 | 75 | 1011.2 |
| 20260502163529 | 12 | 187 | 1.6 | 4.8 | 0.00 | 0.15 | 0.15 | 74 | 1011.3 |
| 20260502163029 | 12 | 221 | 1.6 | 3.2 | 0.00 | 0.15 | 0.15 | 76 | 1011.2 |
| 20260502162530 | 12 | 271 | 0.0 | 4.8 | 0.00 | 0.15 | 0.15 | 76 | 1011.3 |
| 20260502162030 | 12 | 283 | 0.0 | 4.8 | 0.00 | 0.15 | 0.15 | 77 | 1011.4 |
| 20260502161530 | 12 | 278 | 1.6 | 3.2 | 0.00 | 0.15 | 0.15 | 76 | 1011.5 |
| 20260502161030 | 12 | 0.0 | 1.6 | 0.00 | 0.15 | 0.15 | 76 | 1011.5 | |
| 20260502160530 | 12 | 159 | 1.6 | 6.4 | 0.00 | 0.15 | 0.15 | 75 | 1011.6 |
| 20260502152031 | 11 | 107 | 1.6 | 9.7 | 0.00 | 0.15 | 0.15 | 79 | 1011.7 |
| 20260502151530 | 11 | 137 | 1.6 | 9.7 | 0.00 | 0.15 | 0.15 | 78 | 1011.8 |
| 20260502151031 | 12 | 218 | 1.6 | 9.7 | 0.00 | 0.15 | 0.15 | 79 | 1011.8 |
| 20260502150530 | 12 | 192 | 1.6 | 3.2 | 0.00 | 0.15 | 0.15 | 79 | 1011.9 |
| 20260502130529 | 8 | 160 | 0.0 | 3.2 | 0.03 | 0.05 | 0.05 | 88 | 1012.9 |
| 20260502123610 | 8 | 23 | 1.6 | 3.2 | 0.03 | 0.05 | 0.05 | 87 | 1012.4 |
| 20260502123050 | 8 | 24 | 0.0 | 4.8 | 0.03 | 0.05 | 0.05 | 86 | 1012.6 |
| 20260502122529 | 8 | 11 | 1.6 | 4.8 | 0.03 | 0.05 | 0.05 | 85 | 1012.6 |
| 20260502122029 | 8 | 7 | 1.6 | 6.4 | 0.03 | 0.05 | 0.05 | 85 | 1012.5 |
| 20260502121529 | 8 | 2 | 1.6 | 6.4 | 0.03 | 0.05 | 0.05 | 87 | 1012.4 |
| 20260502121029 | 8 | 357 | 1.6 | 3.2 | 0.03 | 0.05 | 0.05 | 88 | 1012.2 |
| 20260502120529 | 8 | 139 | 0.0 | 3.2 | 0.05 | 0.05 | 0.05 | 90 | 1012.3 |
| 20260502115549 | 8 | 153 | 0.0 | 1.6 | 0.05 | 0.05 | 0.05 | 91 | 1012.2 |
| 20260502115029 | 8 | 155 | 0.0 | 1.6 | 0.05 | 0.05 | 0.05 | 90 | 1012.2 |
| 20260502114531 | 8 | 161 | 0.0 | 1.6 | 0.03 | 0.03 | 0.03 | 89 | 1012.0 |
| 20260502114030 | 8 | 0.0 | 0.0 | 0.03 | 0.03 | 0.03 | 88 | 1012.1 | |
| 20260502113550 | 8 | 0.0 | 0.0 | 0.03 | 0.03 | 0.03 | 90 | 1012.1 | |
| 20260502113030 | 8 | 0.0 | 0.0 | 0.03 | 0.03 | 0.03 | 88 | 1012.0 | |
| 20260502112530 | 8 | 0.0 | 0.0 | 0.03 | 0.03 | 0.03 | 87 | 1012.1 | |
| 20260502112030 | 8 | 160 | 0.0 | 1.6 | 0.03 | 0.03 | 0.03 | 86 | 1012.2 |
| 20260502111530 | 8 | 161 | 0.0 | 1.6 | 0.00 | 0.00 | 0.00 | 86 | 1012.2 |
| 20260502111030 | 8 | 0.0 | 0.0 | 0.00 | 0.00 | 0.00 | 85 | 1011.8 | |
| 20260502110529 | 8 | 161 | 0.0 | 3.2 | 0.00 | 0.00 | 0.00 | 86 | 1011.9 |
| 20260502110029 | 8 | 162 | 0.0 | 3.2 | 0.00 | 0.00 | 0.00 | 85 | 1011.7 |
| 20260502105549 | 8 | 163 | 0.0 | 3.2 | 0.00 | 0.00 | 0.00 | 86 | 1011.5 |
| 20260502105029 | 8 | 179 | 0.0 | 3.2 | 0.00 | 0.00 | 0.00 | 85 | 1011.7 |
| 20260502104529 | 8 | 0.0 | 0.0 | 0.00 | 0.00 | 0.00 | 86 | 1011.7 | |
| 20260502104029 | 8 | 193 | 0.0 | 3.2 | 0.00 | 0.00 | 0.00 | 87 | 1011.6 |
| 20260502103529 | 8 | 179 | 0.0 | 3.2 | 0.00 | 0.00 | 0.00 | 90 | 1011.5 |
| 20260502103052 | 7 | 181 | 0.0 | 1.6 | 0.00 | 0.00 | 0.00 | 91 | 1011.4 |
| 20260502102530 | 7 | 0.0 | 0.0 | 0.00 | 0.00 | 0.00 | 90 | 1011.3 | |
| 20260502102050 | 7 | 0.0 | 0.0 | 0.00 | 0.00 | 0.00 | 90 | 1011.2 | |
| 20260502101530 | 7 | 0.0 | 0.0 | 0.00 | 0.00 | 0.00 | 90 | 1011.2 | |
| 20260502101030 | 7 | 0.0 | 0.0 | 0.00 | 0.00 | 0.00 | 90 | 1011.1 | |
| 20260502100530 | 7 | 0.0 | 0.0 | 0.00 | 0.00 | 0.00 | 89 | 1011.0 | |
| 20260502091530 | 8 | 170 | 0.0 | 1.6 | 0.00 | 0.00 | 0.00 | 81 | 1011.8 |
| 20260502091030 | 7 | 166 | 0.0 | 3.2 | 0.00 | 0.00 | 0.00 | 80 | 1011.4 |
| 20260502090530 | 7 | 166 | 0.0 | 3.2 | 0.00 | 0.00 | 0.00 | 80 | 1011.4 |
| 20260502071530 | 7 | 30 | 0.0 | 1.6 | 0.00 | 0.00 | 0.00 | 81 | 1011.5 |
| 20260502071030 | 7 | 0.0 | 0.0 | 0.00 | 0.00 | 0.00 | 81 | 1011.6 | |
| 20260502070550 | 6 | 30 | 0.0 | 1.6 | 0.00 | 0.00 | 0.00 | 81 | 1011.8 |
| 20260502070029 | 6 | 0.0 | 0.0 | 0.00 | 0.00 | 0.00 | 81 | 1011.8 | |
| 20260502065529 | 6 | 0.0 | 0.0 | 0.00 | 0.00 | 0.00 | 82 | 1011.7 | |
| 20260502065030 | 6 | 0.0 | 0.0 | 0.00 | 0.00 | 0.00 | 83 | 1011.7 | |
| 20260502064549 | 5 | 0.0 | 0.0 | 0.00 | 0.00 | 0.00 | 85 | 1011.4 | |
| 20260502064029 | 5 | 0.0 | 0.0 | 0.00 | 0.00 | 0.00 | 86 | 1011.3 | |
| 20260502063529 | 5 | 0.0 | 0.0 | 0.00 | 0.00 | 0.00 | 84 | 1011.4 | |
| 20260502063029 | 5 | 0.0 | 0.0 | 0.00 | 0.00 | 0.00 | 84 | 1011.3 | |
| 20260502062609 | 5 | 0.0 | 0.0 | 0.00 | 0.00 | 0.00 | 83 | 1011.3 | |
| 20260502062049 | 6 | 0.0 | 0.0 | 0.00 | 0.00 | 0.00 | 83 | 1011.2 | |
| 20260502061528 | 6 | 0.0 | 0.0 | 0.00 | 0.00 | 0.00 | 83 | 1011.3 | |
| 20260502061050 | 6 | 0.0 | 0.0 | 0.00 | 0.00 | 0.00 | 82 | 1011.2 | |
| 20260502060530 | 6 | 0.0 | 0.0 | 0.00 | 0.00 | 0.00 | 82 | 1011.3 | |
| 20260502060030 | 6 | 0.0 | 0.0 | 0.00 | 0.00 | 0.00 | 82 | 1011.4 | |
| 20260502055550 | 6 | 0.0 | 0.0 | 0.00 | 0.00 | 0.00 | 83 | 1011.4 | |
| 20260502055030 | 6 | 0.0 | 1.6 | 0.00 | 0.00 | 0.00 | 81 | 1011.3 | |
| 20260502054550 | 6 | 30 | 0.0 | 1.6 | 0.00 | 0.00 | 0.00 | 81 | 1011.3 |
| 20260502054030 | 6 | 0.0 | 0.0 | 0.00 | 0.00 | 0.00 | 82 | 1011.3 | |
| 20260502053529 | 6 | 0.0 | 0.0 | 0.00 | 0.00 | 0.00 | 84 | 1011.3 | |
| 20260502053049 | 6 | 0.0 | 0.0 | 0.00 | 0.00 | 0.00 | 82 | 1011.4 | |
| 20260502052529 | 6 | 0.0 | 0.0 | 0.00 | 0.00 | 0.00 | 83 | 1011.4 | |
| 20260502052029 | 6 | 0.0 | 0.0 | 0.00 | 0.00 | 0.00 | 82 | 1011.4 | |
| 20260502051529 | 6 | 0.0 | 0.0 | 0.00 | 0.00 | 0.00 | 80 | 1011.4 | |
| 20260502051114 | 6 | 0.0 | 0.0 | 0.00 | 0.00 | 0.00 | 82 | 1011.3 | |
| 20260502050528 | 6 | 0.0 | 0.0 | 0.00 | 0.00 | 0.00 | 79 | 1011.2 | |
| 20260502050028 | 6 | 0.0 | 0.0 | 0.00 | 0.00 | 0.00 | 80 | 1011.4 | |
| 20260502045530 | 6 | 0.0 | 0.0 | 0.00 | 0.00 | 0.00 | 80 | 1011.5 | |
| 20260502045050 | 6 | 0.0 | 0.0 | 0.00 | 0.00 | 0.00 | 80 | 1011.5 | |
| 20260502044550 | 6 | 0.0 | 0.0 | 0.00 | 0.00 | 0.00 | 80 | 1011.6 | |
| 20260502044030 | 6 | 0.0 | 0.0 | 0.00 | 0.00 | 0.00 | 78 | 1011.7 | |
| 20260502043530 | 6 | 0.0 | 0.0 | 0.00 | 0.00 | 0.00 | 78 | 1011.7 | |
| 20260502043029 | 6 | 0.0 | 0.0 | 0.00 | 0.00 | 0.00 | 78 | 1011.8 | |
| 20260502042529 | 7 | 0.0 | 0.0 | 0.00 | 0.00 | 0.00 | 78 | 1011.7 | |
| 20260502042029 | 7 | 0.0 | 0.0 | 0.00 | 0.00 | 0.00 | 78 | 1011.7 | |
| 20260502041529 | 7 | 0.0 | 0.0 | 0.00 | 0.00 | 0.00 | 76 | 1011.6 | |
| 20260502041031 | 7 | 0.0 | 0.0 | 0.00 | 0.00 | 0.00 | 76 | 1011.6 | |
| 20260502040531 | 7 | 0.0 | 0.0 | 0.00 | 0.00 | 0.00 | 76 | 1011.6 | |
| 20260502040031 | 7 | 0.0 | 0.0 | 0.00 | 0.00 | 0.00 | 72 | 1011.6 | |
| 20260502035530 | 7 | 0.0 | 0.0 | 0.00 | 0.00 | 0.00 | 76 | 1011.5 | |
| 20260502035030 | 7 | 0.0 | 0.0 | 0.00 | 0.00 | 0.00 | 75 | 1011.5 | |
| 20260502034530 | 7 | 0.0 | 0.0 | 0.00 | 0.00 | 0.00 | 76 | 1011.5 | |
| 20260502034030 | 7 | 0.0 | 0.0 | 0.00 | 0.00 | 0.00 | 76 | 1011.6 | |
| 20260502033530 | 7 | 0.0 | 0.0 | 0.00 | 0.00 | 0.00 | 76 | 1011.4 | |
| 20260502033030 | 7 | 0.0 | 0.0 | 0.00 | 0.00 | 0.00 | 74 | 1011.5 | |
| 20260502032530 | 7 | 0.0 | 0.0 | 0.00 | 0.00 | 0.00 | 74 | 1011.4 | |
| 20260502032030 | 7 | 0.0 | 0.0 | 0.00 | 0.00 | 0.00 | 74 | 1011.4 | |
| 20260502031529 | 7 | 0.0 | 0.0 | 0.00 | 0.00 | 0.00 | 74 | 1011.4 | |
| 20260502031050 | 7 | 0.0 | 0.0 | 0.00 | 0.00 | 0.00 | 75 | 1011.3 | |
| 20260502030529 | 6 | 0.0 | 0.0 | 0.00 | 0.00 | 0.00 | 76 | 1011.4 | |
| 20260502030031 | 6 | 0.0 | 0.0 | 0.00 | 0.00 | 0.00 | 77 | 1011.4 | |
| 20260502025551 | 6 | 0.0 | 0.0 | 0.00 | 0.00 | 0.00 | 76 | 1011.4 | |
| 20260502025030 | 6 | 0.0 | 0.0 | 0.00 | 0.00 | 0.00 | 74 | 1011.4 | |
| 20260502024531 | 6 | 0.0 | 0.0 | 0.00 | 0.00 | 0.00 | 74 | 1011.4 | |
| 20260502024030 | 6 | 0.0 | 0.0 | 0.00 | 0.00 | 0.00 | 74 | 1011.4 | |
| 20260502023550 | 6 | 0.0 | 0.0 | 0.00 | 0.00 | 0.00 | 74 | 1011.3 | |
| 20260502023030 | 6 | 0.0 | 0.0 | 0.00 | 0.00 | 0.00 | 72 | 1011.4 | |
| 20260502022550 | 7 | 0.0 | 0.0 | 0.00 | 0.00 | 0.00 | 71 | 1011.4 | |
| 20260502022030 | 7 | 0.0 | 0.0 | 0.00 | 0.00 | 0.00 | 71 | 1011.4 | |
| 20260502021530 | 7 | 0.0 | 0.0 | 0.00 | 0.00 | 0.00 | 73 | 1011.3 | |
| 20260502021030 | 7 | 0.0 | 0.0 | 0.00 | 0.00 | 0.00 | 73 | 1011.4 | |
| 20260502020530 | 7 | 0.0 | 0.0 | 0.00 | 0.00 | 0.00 | 72 | 1011.4 | |
| 20260502020029 | 7 | 0.0 | 0.0 | 0.00 | 0.00 | 0.00 | 70 | 1011.5 | |
| 20260502015529 | 7 | 0.0 | 1.6 | 0.00 | 0.00 | 0.00 | 69 | 1011.4 | |
| 20260502015029 | 7 | 30 | 0.0 | 1.6 | 0.00 | 0.00 | 0.00 | 67 | 1011.4 |
| 20260502014529 | 7 | 0.0 | 0.0 | 0.00 | 0.00 | 0.00 | 71 | 1011.3 | |
| 20260502014029 | 7 | 0.0 | 0.0 | 0.00 | 0.00 | 0.00 | 68 | 1011.3 | |
| 20260502013529 | 7 | 0.0 | 0.0 | 0.00 | 0.00 | 0.00 | 66 | 1011.3 | |
| 20260502013029 | 7 | 0.0 | 0.0 | 0.00 | 0.00 | 0.00 | 67 | 1011.3 | |
| 20260502012530 | 7 | 0.0 | 0.0 | 0.00 | 0.00 | 0.00 | 68 | 1011.2 | |
| 20260502012030 | 8 | 0.0 | 0.0 | 0.00 | 0.00 | 0.00 | 67 | 1011.2 | |
| 20260502011530 | 8 | 0.0 | 0.0 | 0.00 | 0.00 | 0.00 | 67 | 1011.2 | |
| 20260502011030 | 8 | 0.0 | 0.0 | 0.00 | 0.00 | 0.00 | 63 | 1011.2 | |
| 20260502010530 | 8 | 0.0 | 0.0 | 0.00 | 0.00 | 0.00 | 63 | 1011.1 | |
| 20260502010030 | 8 | 0.0 | 0.0 | 0.00 | 0.00 | 0.00 | 62 | 1011.1 | |
| 20260502005529 | 8 | 0.0 | 0.0 | 0.00 | 0.00 | 0.00 | 61 | 1011.0 | |
| 20260502005050 | 9 | 0.0 | 0.0 | 0.00 | 0.00 | 0.00 | 61 | 1011.0 | |
| 20260502004529 | 9 | 0.0 | 0.0 | 0.00 | 0.00 | 0.00 | 58 | 1011.0 | |
| 20260502004029 | 9 | 0.0 | 0.0 | 0.00 | 0.00 | 0.00 | 61 | 1010.9 | |
| 20260502003611 | 10 | 0.0 | 0.0 | 0.00 | 0.00 | 0.00 | 59 | 1010.8 | |
| 20260502003031 | 10 | 0.0 | 0.0 | 0.00 | 0.00 | 0.00 | 59 | 1010.7 | |
| 20260502002531 | 10 | 0.0 | 0.0 | 0.00 | 0.00 | 0.00 | 57 | 1010.6 | |
| 20260502002031 | 10 | 0.0 | 0.0 | 0.00 | 0.00 | 0.00 | 55 | 1010.5 | |
| 20260502001530 | 10 | 0.0 | 0.0 | 0.00 | 0.00 | 0.00 | 55 | 1010.3 | |
| 20260502001031 | 10 | 0.0 | 0.0 | 0.00 | 0.00 | 0.00 | 53 | 1010.3 | |
| 20260502000530 | 11 | 0.0 | 0.0 | 0.00 | 0.00 | 0.00 | 53 | 1010.3 | |
| 20260502000110 | 11 | 30 | 0.0 | 1.6 | 0.00 | 0.00 | 0.00 | 53 | 1010.1 |
| 20260501235530 | 11 | 0.0 | 0.0 | 0.00 | 0.00 | 0.00 | 46 | 1010.1 | |
| 20260501235050 | 12 | 31 | 0.0 | 1.6 | 0.00 | 0.00 | 0.00 | 45 | 1010.0 |
| 20260501234529 | 12 | 26 | 0.0 | 1.6 | 0.00 | 0.00 | 0.00 | 50 | 1009.8 |
| 20260501234029 | 12 | 0.0 | 0.0 | 0.00 | 0.00 | 0.00 | 46 | 1009.8 | |
| 20260501233549 | 13 | 0.0 | 0.0 | 0.00 | 0.00 | 0.00 | 45 | 1009.7 | |
| 20260501233029 | 13 | 0.0 | 1.6 | 0.00 | 0.00 | 0.00 | 44 | 1009.6 | |
| 20260501232529 | 13 | 28 | 0.0 | 1.6 | 0.00 | 0.00 | 0.00 | 41 | 1009.6 |
| 20260501232031 | 14 | 0.0 | 0.0 | 0.00 | 0.00 | 0.00 | 36 | 1009.5 | |
| 20260501231531 | 15 | 8 | 1.6 | 4.8 | 0.00 | 0.00 | 0.00 | 33 | 1009.3 |
| 20260501231031 | 14 | 350 | 0.0 | 3.2 | 0.00 | 0.00 | 0.00 | 36 | 1009.3 |
| 20260501230530 | 15 | 350 | 0.0 | 1.6 | 0.00 | 0.00 | 0.00 | 35 | 1009.3 |
| 20260501230031 | 15 | 350 | 0.0 | 1.6 | 0.00 | 0.00 | 0.00 | 35 | 1009.3 |
| 20260501225530 | 15 | 350 | 0.0 | 3.2 | 0.00 | 0.00 | 0.00 | 32 | 1009.3 |
| 20260501225030 | 15 | 350 | 1.6 | 3.2 | 0.00 | 0.00 | 0.00 | 33 | 1009.2 |
| 20260501224530 | 15 | 350 | 1.6 | 3.2 | 0.00 | 0.00 | 0.00 | 30 | 1009.3 |
| 20260501224030 | 16 | 336 | 3.2 | 6.4 | 0.00 | 0.00 | 0.00 | 30 | 1009.1 |
| 20260501223529 | 16 | 350 | 3.2 | 6.4 | 0.00 | 0.00 | 0.00 | 29 | 1009.0 |
| 20260501223029 | 16 | 2 | 3.2 | 6.4 | 0.00 | 0.00 | 0.00 | 30 | 1009.1 |
| 20260501222529 | 16 | 3 | 1.6 | 6.4 | 0.00 | 0.00 | 0.00 | 30 | 1009.0 |
| 20260501222029 | 16 | 14 | 3.2 | 11.3 | 0.00 | 0.00 | 0.00 | 30 | 1009.0 |
| 20260501221550 | 16 | 8 | 3.2 | 9.7 | 0.00 | 0.00 | 0.00 | 29 | 1009.0 |
| 20260501221031 | 16 | 350 | 3.2 | 9.7 | 0.00 | 0.00 | 0.00 | 31 | 1009.0 |
| 20260501220611 | 16 | 350 | 1.6 | 11.3 | 0.00 | 0.00 | 0.00 | 31 | 1009.0 |
| 20260501220031 | 16 | 9 | 1.6 | 11.3 | 0.00 | 0.00 | 0.00 | 32 | 1008.8 |
| 20260501215530 | 16 | 349 | 4.8 | 9.7 | 0.00 | 0.00 | 0.00 | 30 | 1008.8 |
| 20260501215030 | 16 | 323 | 1.6 | 6.4 | 0.00 | 0.00 | 0.00 | 31 | 1008.7 |
| 20260501214530 | 16 | 298 | 1.6 | 6.4 | 0.00 | 0.00 | 0.00 | 32 | 1008.8 |
| 20260501214030 | 16 | 344 | 3.2 | 6.4 | 0.00 | 0.00 | 0.00 | 31 | 1008.8 |
| 20260501213552 | 16 | 353 | 3.2 | 6.4 | 0.00 | 0.00 | 0.00 | 31 | 1008.7 |
| 20260501213030 | 16 | 334 | 1.6 | 3.2 | 0.00 | 0.00 | 0.00 | 32 | 1008.7 |
| 20260501212530 | 16 | 10 | 0.0 | 4.8 | 0.00 | 0.00 | 0.00 | 32 | 1008.6 |
| 20260501212029 | 16 | 3 | 0.0 | 3.2 | 0.00 | 0.00 | 0.00 | 30 | 1008.6 |
| 20260501211529 | 16 | 2 | 3.2 | 11.3 | 0.00 | 0.00 | 0.00 | 30 | 1008.6 |
| 20260501211029 | 16 | 2 | 3.2 | 6.4 | 0.00 | 0.00 | 0.00 | 30 | 1008.6 |
| 20260501210531 | 16 | 354 | 1.6 | 4.8 | 0.00 | 0.00 | 0.00 | 31 | 1008.6 |
| 20260501210031 | 16 | 343 | 3.2 | 6.4 | 0.00 | 0.00 | 0.00 | 30 | 1008.5 |
| 20260501205551 | 16 | 1 | 3.2 | 9.7 | 0.00 | 0.00 | 0.00 | 31 | 1008.3 |
| 20260501205030 | 16 | 279 | 3.2 | 9.7 | 0.00 | 0.00 | 0.00 | 30 | 1008.4 |
| 20260501204531 | 16 | 342 | 3.2 | 9.7 | 0.00 | 0.00 | 0.00 | 31 | 1008.3 |
| 20260501204030 | 16 | 341 | 4.8 | 9.7 | 0.00 | 0.00 | 0.00 | 30 | 1008.3 |